TimeCST,TemperatureF,Dew PointF,Humidity,Sea Level PressureIn,VisibilityMPH,Wind Direction,Wind SpeedMPH,Gust SpeedMPH,PrecipitationIn,Events,Conditions,WindDirDegrees,DateUTC
12:13 AM,23.0,21.2,93,29.74,1.0,NNW,11.5,20.7,0.01,Snow,Snow,330,2012-11-23 06:13:00
12:32 AM,21.2,21.2,100,29.75,1.0,NNW,13.8,25.3,0.01,Snow,Snow,330,2012-11-23 06:32:00
12:53 AM,21.2,19.4,93,29.76,1.0,NNW,15.0,31.1,0.02,Snow,Snow,330,2012-11-23 06:53:00
1:13 AM,21.2,19.4,93,29.78,1.0,NNW,12.7,21.9,N/A,Snow,Snow,330,2012-11-23 07:13:00
1:32 AM,21.2,17.6,86,29.79,1.0,NW,11.5,31.1,0.01,Snow,Light Snow,320,2012-11-23 07:32:00
1:53 AM,19.4,17.6,93,29.80,1.0,NNW,16.1,27.6,0.01,Snow,Light Snow,330,2012-11-23 07:53:00
2:13 AM,19.4,17.6,93,29.82,1.2,NW,15.0,21.9,N/A,Snow,Light Snow,320,2012-11-23 08:13:00
2:33 AM,19.4,17.6,93,29.83,1.2,NW,13.8,26.5,N/A,Snow,Light Snow,310,2012-11-23 08:33:00
2:53 AM,19.4,17.6,93,29.85,1.0,NNW,12.7,25.3,0.01,Snow,Light Snow,330,2012-11-23 08:53:00
3:12 AM,19.4,15.8,86,29.87,1.0,NW,10.4,24.2,N/A,Snow,Light Snow,320,2012-11-23 09:12:00
3:33 AM,19.4,15.8,86,29.88,1.2,NW,12.7,23.0,N/A,Snow,Light Snow,320,2012-11-23 09:33:00
3:53 AM,17.6,15.8,93,29.89,4.0,NNW,12.7,24.2,N/A,Snow,Light Snow,330,2012-11-23 09:53:00
4:12 AM,17.6,15.8,93,29.91,4.0,NW,19.6,29.9,N/A,Snow,Light Snow,320,2012-11-23 10:12:00
4:33 AM,17.6,15.8,93,29.93,7.0,NW,10.4,26.5,N/A,Snow,Light Snow,320,2012-11-23 10:33:00
4:53 AM,17.6,15.8,93,29.94,7.0,NNW,12.7,20.7,N/A,Snow,Light Snow,330,2012-11-23 10:53:00
5:12 AM,17.6,15.8,93,29.95,5.0,NNW,12.7,23.0,N/A,Snow,Light Snow,330,2012-11-23 11:12:00
5:33 AM,17.6,14.0,86,29.97,4.0,NNW,15.0,26.5,N/A,Snow,Light Snow,330,2012-11-23 11:33:00
5:53 AM,17.6,14.0,86,29.99,4.0,NW,19.6,29.9,N/A,Snow,Light Snow,320,2012-11-23 11:53:00
6:12 AM,17.6,14.0,86,30.00,5.0,NNW,13.8,25.3,N/A,Snow,Light Snow,330,2012-11-23 12:12:00
6:33 AM,17.6,12.2,79,30.01,5.0,NNW,16.1,29.9,N/A,Snow,Light Snow,330,2012-11-23 12:33:00
6:53 AM,17.6,12.2,79,30.02,7.0,NW,16.1,23.0,N/A,Snow,Light Snow,320,2012-11-23 12:53:00
7:12 AM,17.6,14.0,86,30.04,4.0,NW,13.8,25.3,N/A,Snow,Light Snow,320,2012-11-23 13:12:00
7:33 AM,17.6,12.2,79,30.05,4.0,NW,11.5,24.2,N/A,Snow,Light Snow,310,2012-11-23 13:33:00
7:53 AM,17.6,12.2,79,30.06,4.0,NW,8.1,23.0,N/A,Snow,Light Snow,320,2012-11-23 13:53:00
8:12 AM,17.6,12.2,79,30.07,3.0,NW,12.7,21.9,N/A,Snow,Light Snow,310,2012-11-23 14:12:00
8:33 AM,17.6,12.2,79,30.09,4.0,NW,11.5,23.0,N/A,Snow,Light Snow,320,2012-11-23 14:33:00
8:53 AM,17.6,12.2,79,30.09,5.0,NNW,11.5,23.0,N/A,Snow,Light Snow,330,2012-11-23 14:53:00
9:13 AM,17.6,12.2,79,30.11,5.0,NW,12.7,26.5,N/A,Snow,Light Snow,310,2012-11-23 15:13:00
9:32 AM,17.6,12.2,79,30.12,5.0,NW,8.1,19.6,N/A,Snow,Light Snow,320,2012-11-23 15:32:00
9:53 AM,17.6,12.2,79,30.13,4.0,NNW,11.5,18.4,N/A,Snow,Light Snow,340,2012-11-23 15:53:00
10:13 AM,17.6,12.2,79,30.14,7.0,NNW,10.4,20.7,N/A,Snow,Light Snow,330,2012-11-23 16:13:00
10:33 AM,17.6,12.2,79,30.14,10.0,NNW,11.5,21.9,N/A,Snow,Light Snow,340,2012-11-23 16:33:00
10:53 AM,17.6,12.2,79,30.15,7.0,NW,15.0,23.0,N/A,Snow,Light Snow,320,2012-11-23 16:53:00
11:13 AM,17.6,12.2,79,30.15,2.0,NNW,12.7,23.0,N/A,Snow,Light Snow,340,2012-11-23 17:13:00
11:33 AM,17.6,12.2,79,30.16,2.5,NNW,6.9,24.2,N/A,Snow,Light Snow,330,2012-11-23 17:33:00
11:53 AM,17.6,12.2,79,30.16,2.0,NW,13.8,18.4,N/A,Snow,Light Snow,320,2012-11-23 17:53:00
12:13 PM,17.6,12.2,79,30.16,2.5,NW,13.8,25.3,N/A,Snow,Light Snow,320,2012-11-23 18:13:00
12:32 PM,17.6,12.2,79,30.17,2.5,NW,11.5,24.2,N/A,Snow,Light Snow,310,2012-11-23 18:32:00
12:53 PM,17.6,10.4,73,30.17,7.0,NW,12.7,23.0,N/A,Snow,Light Snow,310,2012-11-23 18:53:00
1:13 PM,17.6,10.4,73,30.17,10.0,NW,17.3,23.0,N/A,Snow,Light Snow,320,2012-11-23 19:13:00
1:32 PM,17.6,10.4,73,30.18,10.0,NW,11.5,18.4,N/A,Snow,Light Snow,320,2012-11-23 19:32:00
1:53 PM,17.6,10.4,73,30.18,10.0,NW,18.4,25.3,N/A,Snow,Light Snow,310,2012-11-23 19:53:00
2:12 PM,17.6,10.4,73,30.18,10.0,NW,8.1,23.0,N/A,,Overcast,320,2012-11-23 20:12:00
2:33 PM,17.6,10.4,73,30.19,5.0,NW,11.5,19.6,N/A,Snow,Light Snow,320,2012-11-23 20:33:00
2:53 PM,17.6,12.2,79,30.20,0.8,NW,8.1,-,N/A,Snow,Light Snow,320,2012-11-23 20:53:00
3:12 PM,17.6,12.2,79,30.20,4.0,NW,11.5,16.1,N/A,Snow,Light Snow,320,2012-11-23 21:12:00
3:33 PM,15.8,10.4,79,30.20,5.0,NW,5.8,-,N/A,Snow,Light Snow,310,2012-11-23 21:33:00
3:53 PM,15.8,10.4,79,30.21,4.0,NW,11.5,19.6,N/A,Snow,Light Snow,320,2012-11-23 21:53:00
4:12 PM,15.8,10.4,79,30.21,5.0,NW,9.2,18.4,N/A,Snow,Light Snow,320,2012-11-23 22:12:00
4:33 PM,15.8,12.2,86,30.21,5.0,NW,10.4,16.1,N/A,Snow,Light Snow,320,2012-11-23 22:33:00
4:53 PM,15.8,12.2,86,30.22,5.0,NNW,8.1,-,N/A,Snow,Light Snow,330,2012-11-23 22:53:00
5:12 PM,15.8,12.2,86,30.22,5.0,NNW,10.4,-,N/A,Snow,Light Snow,330,2012-11-23 23:12:00
5:33 PM,15.8,12.2,86,30.23,4.0,NNW,9.2,-,N/A,Snow,Light Snow,330,2012-11-23 23:33:00
5:53 PM,15.8,10.4,79,30.24,7.0,NW,10.4,16.1,N/A,Snow,Light Snow,320,2012-11-23 23:53:00
6:12 PM,15.8,10.4,79,30.24,10.0,NW,10.4,18.4,N/A,Snow,Light Snow,320,2012-11-24 00:12:00
6:33 PM,15.8,10.4,79,30.24,7.0,NNW,9.2,-,N/A,Snow,Light Snow,330,2012-11-24 00:33:00
6:53 PM,15.8,10.4,79,30.25,10.0,NW,6.9,19.6,N/A,Snow,Light Snow,320,2012-11-24 00:53:00
7:12 PM,15.8,10.4,79,30.24,10.0,NNW,8.1,-,N/A,Snow,Light Snow,330,2012-11-24 01:12:00
7:33 PM,14.0,10.4,86,30.24,7.0,NNW,8.1,17.3,N/A,Snow,Light Snow,330,2012-11-24 01:33:00
7:53 PM,14.0,8.6,79,30.24,10.0,NW,9.2,-,N/A,Snow,Light Snow,320,2012-11-24 01:53:00
8:12 PM,14.0,10.4,86,30.24,10.0,NW,10.4,-,N/A,Snow,Light Snow,320,2012-11-24 02:12:00
8:33 PM,14.0,10.4,86,30.24,10.0,NW,12.7,17.3,N/A,Snow,Light Snow,320,2012-11-24 02:33:00
8:52 PM,14.0,10.4,86,30.23,10.0,NW,11.5,18.4,N/A,Snow,Light Snow,320,2012-11-24 02:52:00
9:11 PM,14.0,8.6,79,30.23,10.0,NNW,12.7,19.6,N/A,Snow,Light Snow,330,2012-11-24 03:11:00
9:33 PM,12.2,6.8,79,30.23,10.0,North,6.9,16.1,N/A,,Scattered Clouds,350,2012-11-24 03:33:00
9:53 PM,12.2,6.8,79,30.24,10.0,NNW,8.1,16.1,N/A,,Scattered Clouds,330,2012-11-24 03:53:00
10:12 PM,12.2,8.6,85,30.24,10.0,NNW,8.1,-,N/A,Snow,Light Snow,330,2012-11-24 04:12:00
10:33 PM,12.2,8.6,85,30.24,10.0,NW,5.8,-,N/A,,Overcast,310,2012-11-24 04:33:00
10:53 PM,12.2,8.6,85,30.24,10.0,NNW,3.5,-,N/A,,Overcast,330,2012-11-24 04:53:00
11:12 PM,12.2,8.6,85,30.24,10.0,NNW,3.5,-,N/A,Snow,Light Snow,330,2012-11-24 05:12:00
11:33 PM,12.2,8.6,85,30.25,10.0,NW,6.9,-,N/A,Snow,Light Snow,320,2012-11-24 05:33:00
11:53 PM,12.2,8.6,85,30.24,7.0,NNW,6.9,-,N/A,Snow,Light Snow,330,2012-11-24 05:53:00